{"data":{"norad_id":39073,"epoch":"2026-09-19T10:39:53.518752Z","epoch_age_seconds":105461,"freshness":"FRESH","line1":"1 39073U 13005B   26262.44436943 -.00000089  00000+0  80928-4 0  9994","line2":"2 39073  52.0113 309.7939 0000485 146.4860 213.6037 12.62267197628766","mean_motion":12.62267197,"eccentricity":4.85e-5,"inclination_deg":52.0113,"raan_deg":309.7939,"arg_perigee_deg":146.486,"mean_anomaly_deg":213.6037,"bstar":8.0928e-5,"rev_number":62876,"period_min":114.08044219341,"perigee_km":1413.2225574926,"apogee_km":1413.9783560259,"semimajor_km":7791.7374567592,"source":"CELESTRAK","updated_at":"2026-09-20T09:00:45.041002Z"}}